Location: Little Cypress
(30.1590°N, 93.7750°W)
Time: 08:03:25
(UTC-06:00)

Daily predictions for brighter satellites

Satellite Brightness Start Highest point End
(mag) Time Altitude Azimuth Time Altitude Azimuth Time Altitude Azimuth
CENTAUR R/B 4.1 17:31:39 10° WSW 17:36:46 30° NW 17:42:29 10° N
Cosmos 1703 Rocket 4.3 17:34:57 10° SSE 17:38:57 33° E 17:42:57 10° NNE
OE (NEXTSAT) 4.4 17:36:52 10° NW 17:40:22 60° NE 17:43:49 10° ESE
Cosmos 1782 3.8 17:38:26 10° SSE 17:41:51 27° E 17:45:16 10° NNE
ERBS 3.7 17:40:51 10° N 17:43:26 20° NE 17:46:02 10° E
CSL-04 Rocket 3.6 17:39:27 10° SSE 17:44:43 83° ENE 17:50:03 10° NNW
Cosmos 2082 Rocket 3.7 17:46:25 10° NNE 17:49:34 15° ENE 17:52:42 10° E
Cosmos 468 Rocket 4.0 17:47:15 10° NNW 17:52:26 88° ENE 17:57:33 10° SSE
ALOS 3.6 17:49:34 10° ESE 17:52:42 18° ENE 17:55:50 10° NNE
Cosmos 1464 Rocket 4.5 17:49:01 10° SSE 17:54:30 36° E 18:00:00 10° NNE
Tiangong 1 3.1 17:54:04 10° SSE 17:54:43 11° SE 17:55:22 10° ESE
Cosmos 405 Rocket 4.1 17:53:48 10° SE 17:56:29 18° E 17:58:57 11° NE
BREEZE-M DEB (TANK) 3.2 17:51:56 10° NW 17:59:15 46° NNE 18:02:14 11° E
SMAP 3.2 17:57:02 10° S 18:01:41 80° WSW 18:06:20 10° NNW
ERS-2 2.7 17:59:08 10° SE 18:02:30 35° ENE 18:05:53 10° N
Cosmos 972 Rocket 4.1 17:57:39 10° NNW 18:02:32 76° WSW 18:07:32 10° S
Cosmos 1908 Rocket 3.5 18:06:04 10° N 18:10:23 65° E 18:14:40 10° SSE
SKYMED 2 3.5 18:06:30 10° NNE 18:10:51 72° ESE 18:15:09 10° S
Meteor 1-10 Rocket 4.3 18:06:32 10° S 18:12:00 55° E 18:17:35 10° NNE
Cosmos 1763 Rocket 3.4 18:07:17 10° NNW 18:12:29 76° ENE 18:17:34 10° SSE
BREEZE-M DEB (TANK) 4.2 18:09:57 10° NW 18:19:46 48° WSW 18:23:05 10° SSE
Cosmos 972 4.2 18:16:27 10° N 18:21:24 78° ENE 18:26:17 10° SSE
Sich 1 Rocket 3.5 18:18:16 10° N 18:22:42 75° E 18:27:09 10° S
BREEZE-M R/B 4.3 18:20:06 10° N 18:22:44 20° NE 18:22:51 20° NE
Cosmos 1814 Rocket 4.3 18:19:08 10° NNW 18:24:29 72° WSW 18:29:47 10° S
SL-27 R/B 2.6 18:21:36 10° N 18:24:48 43° ENE 18:28:01 10° SE
IUS-13 SRM-1 2.1 18:24:12 10° WSW 18:25:56 38° S 18:26:55 26° SE
Cosmos 1503 Rocket 4.0 18:20:50 10° SSW 18:26:08 86° WNW 18:31:25 10° NNE
FENGYUN 3A 3.8 18:27:29 10° SSE 18:32:42 50° ENE 18:37:55 10° N
Cosmos 968 Rocket 3.9 18:30:23 10° S 18:35:09 40° E 18:37:11 28° NE
CZ-4C R/B 4.2 18:30:56 10° N 18:35:39 19° NE 18:35:39 19° NE
Okean 1-7 3.3 18:31:38 10° SSW 18:35:57 70° W 18:40:19 10° N
Cosmos 1513 Rocket 4.4 18:31:25 10° S 18:37:46 79° E 18:44:02 10° N
CZ-4 R/B 3.4 18:36:53 10° SSW 18:40:20 30° W 18:43:45 10° NW
Cosmos 2369 Rocket 4.1 18:38:11 10° SE 18:39:08 13° SE 18:39:08 13° SE
Cosmos 540 Rocket 3.6 18:36:49 10° N 18:41:50 50° ENE 18:46:48 10° SSE
Cosmos 1633 2.7 18:38:20 10° N 18:42:00 76° W 18:45:39 10° S
Cosmos 2297 4.1 18:36:35 10° SSW 18:42:13 65° WNW 18:47:55 10° NNE
USA 234 4.0 18:39:52 11° NNE 18:45:46 47° NW 18:51:57 10° WSW
Cosmos 841 Rocket 3.9 18:41:54 10° NNW 18:47:08 66° WSW 18:52:18 10° S
Cosmos 1833 Rocket 2.8 18:42:32 10° N 18:48:00 51° ENE 18:53:26 10° SE
Cosmos 2278 Rocket 4.5 18:44:04 10° WSW 18:48:19 21° WNW 18:52:36 10° NNW
Meteor 1-11 Rocket 4.0 18:43:02 10° N 18:48:31 42° ENE 18:53:53 10° SSE
GPS 2-05 Rocket1 2.8 18:46:34 10° W 18:49:39 63° NNW 18:49:39 63° NNW
Cosmos 1891 Rocket 4.5 18:44:07 10° S 18:50:21 83° W 18:56:29 10° N
YAOGAN 1 4.3 18:49:59 10° SSW 18:53:54 34° W 18:57:52 10° NNW
Cosmos 1782 Rocket 3.9 18:50:27 10° NNW 18:54:45 64° W 18:59:03 10° S
Cosmos 1441 Rocket 3.5 18:56:19 10° SSW 19:00:16 70° W 19:01:41 37° N
SPOT 3 Rocket 3.9 18:56:33 10° S 19:01:44 68° WSW 19:06:56 10° NNW
OAO 3 Copernicus 4.4 18:58:47 10° WNW 19:03:49 59° NNE 19:04:13 57° NNE
OAO 3 Rocket 3.1 18:59:19 10° WSW 19:04:15 88° NNW 19:04:51 69° ENE
Cosmos 2034 Rocket 4.4 19:04:24 10° SSW 19:10:42 66° W 19:17:03 10° N
ATLAS 2AS CENTAUR RB 4.5 19:11:10 10° WSW 19:15:20 13° SW 19:17:49 10° S
Nadezhda 4 Rocket 3.8 19:09:24 10° N 19:15:30 70° E 19:21:35 10° SSE
MOS 1-B Rocket 4.4 19:11:41 10° SSE 19:18:23 61° ENE 19:26:17 10° N
USA 229 DEB 3.5 19:22:40 10° SSW 19:29:23 82° ESE 19:30:04 73° NE
USA 229 3.5 19:22:47 10° SSW 19:29:29 81° ESE 19:30:06 74° ENE
ALOS 3.9 19:25:38 10° SSW 19:29:49 33° W 19:34:02 10° NNW
Gblst 52 Del rocket 4.2 19:26:53 10° SW 19:32:01 79° SW 19:32:01 79° SW
Cosmos 2082 Rocket 2.6 19:28:27 10° NNW 19:34:01 60° WSW 19:38:09 18° S
FengYun 1-2 T 4.4 19:31:56 10° S 19:37:59 66° WNW 19:42:56 10° NNW
Cosmos 2369 Rocket 4.5 20:19:44 10° SW 20:21:00 17° SW 20:21:00 17° SW
CZ-4C R/B 4.2 20:17:40 10° NNW 20:20:54 29° NNW 20:20:54 29° NNW
